| time (UTC) | temp F | wind direction | speed knots | gust knots | rain 1hr in | rain 24hr in | rain mn in | humidity % | barometer mb |
| 20260503231654 | 51 | 315 | 1.7 | 4.3 | 0.00 | 0.00 | 0.00 | 55 | 1015.3 |
| 20260503231144 | 51 | 315 | 1.7 | 4.3 | 0.00 | 0.00 | 0.00 | 55 | 1015.2 |
| 20260503230634 | 51 | 315 | 1.7 | 3.5 | 0.00 | 0.00 | 0.00 | 54 | 1015.3 |
| 20260503230130 | 52 | 315 | 1.7 | 4.3 | 0.00 | 0.00 | 0.00 | 54 | 1015.4 |
| 20260503230123 | 52 | 315 | 1.7 | 4.3 | 0.00 | 0.00 | 0.00 | 54 | 1015.4 |
| 20260503225613 | 52 | 315 | 1.7 | 3.5 | 0.00 | 0.00 | 0.00 | 54 | 1015.4 |
| 20260503225102 | 52 | 315 | 1.7 | 4.3 | 0.00 | 0.00 | 0.00 | 54 | 1015.5 |
| 20260503224552 | 52 | 315 | 1.7 | 4.3 | 0.00 | 0.00 | 0.00 | 54 | 1015.5 |
| 20260503224041 | 52 | 315 | 1.7 | 5.2 | 0.00 | 0.00 | 0.00 | 54 | 1015.5 |
| 20260503223530 | 52 | 315 | 1.7 | 2.6 | 0.00 | 0.00 | 0.00 | 54 | 1015.6 |
| 20260503223020 | 52 | 315 | 1.7 | 4.3 | 0.00 | 0.00 | 0.00 | 54 | 1015.6 |
| 20260503222509 | 52 | 315 | 1.7 | 3.5 | 0.00 | 0.00 | 0.00 | 54 | 1015.5 |
| 20260503221959 | 52 | 315 | 1.7 | 3.5 | 0.00 | 0.00 | 0.00 | 54 | 1015.6 |
| 20260503221448 | 52 | 315 | 1.7 | 2.6 | 0.00 | 0.00 | 0.00 | 54 | 1015.6 |
| 20260503220938 | 52 | 315 | 1.7 | 3.5 | 0.00 | 0.00 | 0.00 | 54 | 1015.6 |
| 20260503220427 | 53 | 315 | 1.7 | 5.2 | 0.00 | 0.00 | 0.00 | 54 | 1015.7 |
| 20260503215917 | 53 | 315 | 1.7 | 2.6 | 0.00 | 0.00 | 0.00 | 54 | 1015.7 |
| 20260503215406 | 53 | 315 | 1.7 | 4.3 | 0.00 | 0.00 | 0.00 | 54 | 1015.8 |
| 20260503214856 | 53 | 315 | 1.7 | 3.5 | 0.00 | 0.00 | 0.00 | 54 | 1015.9 |
| 20260503214345 | 53 | 315 | 1.7 | 7.0 | 0.00 | 0.00 | 0.00 | 54 | 1015.9 |
| 20260503213835 | 53 | 315 | 1.7 | 3.5 | 0.00 | 0.00 | 0.00 | 54 | 1015.8 |
| 20260503213324 | 53 | 315 | 2.6 | 6.1 | 0.00 | 0.00 | 0.00 | 54 | 1015.8 |
| 20260503212814 | 53 | 315 | 1.7 | 4.3 | 0.00 | 0.00 | 0.00 | 54 | 1015.8 |
| 20260503212304 | 54 | 315 | 1.7 | 4.3 | 0.00 | 0.00 | 0.00 | 54 | 1015.8 |
| 20260503211242 | 54 | 315 | 1.7 | 4.3 | 0.00 | 0.00 | 0.00 | 54 | 1015.8 |
| 20260503210731 | 54 | 315 | 1.7 | 3.5 | 0.00 | 0.00 | 0.00 | 54 | 1015.7 |
| 20260503210221 | 54 | 315 | 1.7 | 4.3 | 0.00 | 0.00 | 0.00 | 54 | 1015.6 |
| 20260503205710 | 54 | 315 | 1.7 | 4.3 | 0.00 | 0.00 | 0.00 | 55 | 1015.8 |
| 20260503205200 | 54 | 315 | 1.7 | 4.3 | 0.00 | 0.00 | 0.00 | 55 | 1015.7 |
| 20260503204139 | 54 | 315 | 1.7 | 2.6 | 0.00 | 0.00 | 0.00 | 56 | 1016.0 |
| 20260503203628 | 54 | 315 | 1.7 | 3.5 | 0.00 | 0.00 | 0.00 | 57 | 1016.0 |
| 20260503203117 | 54 | 315 | 1.7 | 3.5 | 0.00 | 0.00 | 0.00 | 57 | 1016.0 |
| 20260503202607 | 55 | 315 | 1.7 | 3.5 | 0.00 | 0.00 | 0.00 | 57 | 1016.0 |
| 20260503201545 | 55 | 315 | 1.7 | 6.1 | 0.00 | 0.00 | 0.00 | 57 | 1016.0 |
| 20260503201035 | 55 | 315 | 1.7 | 4.3 | 0.00 | 0.00 | 0.00 | 57 | 1016.0 |
| 20260503200013 | 55 | 315 | 0.9 | 3.5 | 0.00 | 0.00 | 0.00 | 57 | 1016.1 |
| 20260503195503 | 55 | 315 | 1.7 | 3.5 | 0.00 | 0.00 | 0.00 | 57 | 1016.1 |
| 20260503194952 | 55 | 315 | 1.7 | 2.6 | 0.00 | 0.00 | 0.00 | 57 | 1016.1 |
| 20260503194441 | 55 | 315 | 0.9 | 2.6 | 0.00 | 0.00 | 0.00 | 56 | 1016.1 |
| 20260503193931 | 55 | 315 | 0.9 | 2.6 | 0.00 | 0.00 | 0.00 | 56 | 1016.2 |
| 20260503193420 | 55 | 315 | 1.7 | 3.5 | 0.00 | 0.00 | 0.00 | 55 | 1016.2 |
| 20260503192909 | 56 | 315 | 0.9 | 2.6 | 0.00 | 0.00 | 0.00 | 55 | 1016.2 |
| 20260503192359 | 56 | 315 | 1.7 | 2.6 | 0.00 | 0.00 | 0.00 | 55 | 1016.1 |
| 20260503191848 | 56 | 315 | 1.7 | 3.5 | 0.00 | 0.00 | 0.00 | 54 | 1016.2 |
| 20260503191337 | 56 | 315 | 0.9 | 2.6 | 0.00 | 0.00 | 0.00 | 53 | 1016.2 |
| 20260503190827 | 56 | 315 | 0.9 | 2.6 | 0.00 | 0.00 | 0.00 | 53 | 1016.2 |
| 20260503190316 | 57 | 315 | 1.7 | 4.3 | 0.00 | 0.00 | 0.00 | 52 | 1016.1 |
| 20260503185805 | 57 | 315 | 1.7 | 4.3 | 0.00 | 0.00 | 0.00 | 52 | 1016.0 |
| 20260503185254 | 57 | 315 | 1.7 | 3.5 | 0.00 | 0.00 | 0.00 | 51 | 1016.0 |
| 20260503184743 | 57 | 315 | 1.7 | 5.2 | 0.00 | 0.00 | 0.00 | 50 | 1016.0 |
| 20260503183722 | 58 | 315 | 0.9 | 2.6 | 0.00 | 0.00 | 0.00 | 49 | 1016.0 |
| 20260503183211 | 58 | 315 | 0.9 | 3.5 | 0.00 | 0.00 | 0.00 | 48 | 1015.9 |
| 20260503182700 | 59 | 315 | 1.7 | 5.2 | 0.00 | 0.00 | 0.00 | 48 | 1015.9 |
| 20260503182149 | 60 | 315 | 1.7 | 3.5 | 0.00 | 0.00 | 0.00 | 46 | 1015.8 |
| 20260503181638 | 60 | 315 | 1.7 | 2.6 | 0.00 | 0.00 | 0.00 | 45 | 1015.7 |
| 20260503181127 | 61 | 315 | 0.9 | 1.7 | 0.00 | 0.00 | 0.00 | 43 | 1015.8 |
| 20260503180616 | 62 | 315 | 1.7 | 6.1 | 0.00 | 0.00 | 0.00 | 42 | 1015.8 |
| 20260503180105 | 63 | 315 | 1.7 | 2.6 | 0.00 | 0.00 | 0.00 | 41 | 1015.8 |
| 20260503175554 | 65 | 315 | 1.7 | 3.5 | 0.00 | 0.00 | 0.00 | 40 | 1015.8 |
| 20260503175043 | 67 | 315 | 0.9 | 2.6 | 0.00 | 0.00 | 0.00 | 38 | 1015.7 |
| 20260503174531 | 68 | 315 | 1.7 | 4.3 | 0.00 | 0.00 | 0.00 | 36 | 1015.8 |
| 20260503174020 | 69 | 315 | 1.7 | 5.2 | 0.00 | 0.00 | 0.00 | 36 | 1015.7 |
| 20260503173509 | 70 | 315 | 0.9 | 4.3 | 0.00 | 0.00 | 0.00 | 34 | 1015.9 |
| 20260503172957 | 72 | 315 | 0.9 | 2.6 | 0.00 | 0.00 | 0.00 | 33 | 1015.8 |
| 20260503172445 | 72 | 315 | 1.7 | 3.5 | 0.00 | 0.00 | 0.00 | 33 | 1015.8 |
| 20260503171934 | 73 | 315 | 1.7 | 3.5 | 0.00 | 0.00 | 0.00 | 33 | 1015.8 |
| 20260503171422 | 73 | 315 | 1.7 | 3.5 | 0.00 | 0.00 | 0.00 | 32 | 1015.9 |
| 20260503170910 | 74 | 315 | 1.7 | 5.2 | 0.00 | 0.00 | 0.00 | 31 | 1015.7 |
| 20260503170358 | 74 | 315 | 2.6 | 4.3 | 0.00 | 0.00 | 0.00 | 31 | 1015.8 |
| 20260503160135 | 77 | 315 | 1.7 | 3.5 | 0.00 | 0.00 | 0.00 | 28 | 1016.0 |
| 20260503150934 | 78 | 315 | 2.6 | 6.1 | 0.00 | 0.00 | 0.00 | 30 | 1016.2 |
| 20260503150422 | 78 | 315 | 2.6 | 5.2 | 0.00 | 0.00 | 0.00 | 28 | 1016.3 |
| 20260503130956 | 75 | 315 | 1.7 | 2.6 | 0.00 | 0.00 | 0.00 | 34 | 1017.5 |
| 20260503130444 | 74 | 315 | 1.7 | 3.5 | 0.00 | 0.00 | 0.00 | 34 | 1017.4 |
| 20260503110515 | 69 | 315 | 2.6 | 5.2 | 0.00 | 0.00 | 0.00 | 41 | 1018.5 |
| 20260503100258 | 65 | 315 | 1.7 | 3.5 | 0.00 | 0.00 | 0.00 | 52 | 1019.2 |
| 20260503080858 | 55 | 315 | 1.7 | 3.5 | 0.00 | 0.00 | 0.00 | 71 | 1019.7 |
| 20260503072734 | 52 | 315 | 2.6 | 4.3 | 0.00 | 0.00 | 0.00 | 77 | 1019.7 |
| 20260503071713 | 51 | 315 | 1.7 | 4.3 | 0.00 | 0.00 | 0.00 | 76 | 1019.4 |
| 20260503071202 | 51 | 315 | 1.7 | 5.2 | 0.00 | 0.00 | 0.00 | 76 | 1019.5 |
| 20260503070652 | 51 | 315 | 2.6 | 5.2 | 0.00 | 0.00 | 0.00 | 76 | 1019.6 |
| 20260503054917 | 48 | 315 | 1.7 | 4.3 | 0.00 | 0.00 | 0.00 | 75 | 1018.7 |
| 20260503054406 | 48 | 315 | 1.7 | 3.5 | 0.00 | 0.00 | 0.00 | 75 | 1018.7 |
| 20260503053856 | 47 | 315 | 1.7 | 4.3 | 0.00 | 0.00 | 0.00 | 75 | 1018.7 |
| 20260503053346 | 47 | 315 | 0.9 | 2.6 | 0.00 | 0.00 | 0.00 | 76 | 1018.7 |
| 20260503052835 | 47 | 315 | 0.9 | 2.6 | 0.00 | 0.00 | 0.00 | 75 | 1018.7 |
| 20260503052325 | 47 | 315 | 0.9 | 2.6 | 0.00 | 0.00 | 0.00 | 75 | 1018.7 |
| 20260503051815 | 47 | 315 | 0.9 | 2.6 | 0.00 | 0.00 | 0.00 | 74 | 1018.7 |
| 20260503051305 | 47 | 315 | 0.9 | 1.7 | 0.00 | 0.00 | 0.00 | 73 | 1018.7 |
| 20260503050755 | 47 | 315 | 0.9 | 2.6 | 0.00 | 0.00 | 0.00 | 72 | 1018.7 |
| 20260503050244 | 46 | 315 | 0.9 | 3.5 | 0.00 | 0.00 | 0.00 | 71 | 1018.7 |
| 20260503045734 | 46 | 315 | 0.9 | 1.7 | 0.00 | 0.00 | 0.00 | 70 | 1018.7 |
| 20260503045224 | 46 | 315 | 0.9 | 0.9 | 0.00 | 0.00 | 0.00 | 69 | 1018.7 |
| 20260503044714 | 46 | 315 | 0.9 | 1.7 | 0.00 | 0.00 | 0.00 | 68 | 1018.7 |
| 20260503044204 | 46 | 315 | 0.9 | 2.6 | 0.00 | 0.00 | 0.00 | 68 | 1018.7 |
| 20260503043653 | 46 | 315 | 0.9 | 2.6 | 0.00 | 0.00 | 0.00 | 67 | 1018.7 |
| 20260503043143 | 46 | 315 | 0.9 | 2.6 | 0.00 | 0.00 | 0.00 | 66 | 1018.6 |
| 20260503042633 | 46 | 315 | 0.0 | 0.9 | 0.00 | 0.00 | 0.00 | 66 | 1018.7 |
| 20260503042123 | 46 | 315 | 0.9 | 3.5 | 0.00 | 0.00 | 0.00 | 65 | 1018.7 |
| 20260503041613 | 46 | 315 | 0.9 | 3.5 | 0.00 | 0.00 | 0.00 | 65 | 1018.8 |
| 20260503041102 | 46 | 315 | 0.9 | 2.6 | 0.00 | 0.00 | 0.00 | 63 | 1018.8 |
| 20260503040552 | 47 | 315 | 0.9 | 2.6 | 0.00 | 0.00 | 0.00 | 62 | 1018.9 |
| 20260503040042 | 47 | 315 | 0.9 | 3.5 | 0.00 | 0.00 | 0.00 | 60 | 1018.8 |
| 20260503035532 | 47 | 315 | 0.9 | 2.6 | 0.00 | 0.00 | 0.00 | 60 | 1018.8 |
| 20260503035021 | 47 | 315 | 0.9 | 1.7 | 0.00 | 0.00 | 0.00 | 59 | 1018.9 |
| 20260503034511 | 47 | 315 | 0.9 | 2.6 | 0.00 | 0.00 | 0.00 | 59 | 1018.9 |
| 20260503034001 | 47 | 315 | 0.9 | 3.5 | 0.00 | 0.00 | 0.00 | 58 | 1018.8 |
| 20260503033451 | 47 | 315 | 0.0 | 0.9 | 0.00 | 0.00 | 0.00 | 58 | 1018.8 |
| 20260503032940 | 47 | 315 | 0.0 | 0.9 | 0.00 | 0.00 | 0.00 | 58 | 1018.8 |
| 20260503032430 | 48 | 315 | 0.0 | 1.7 | 0.00 | 0.00 | 0.00 | 57 | 1018.7 |
| 20260503031920 | 48 | 315 | 0.0 | 0.9 | 0.00 | 0.00 | 0.00 | 56 | 1018.8 |
| 20260503031410 | 48 | 315 | 0.0 | 0.9 | 0.00 | 0.00 | 0.00 | 57 | 1018.8 |
| 20260503030859 | 48 | 315 | 0.0 | 0.9 | 0.00 | 0.00 | 0.00 | 56 | 1018.9 |
| 20260503030349 | 48 | 315 | 0.0 | 0.9 | 0.00 | 0.00 | 0.00 | 56 | 1018.8 |
| 20260503025839 | 48 | 315 | 0.0 | 0.9 | 0.00 | 0.00 | 0.00 | 56 | 1018.8 |
| 20260503025328 | 48 | 315 | 0.0 | 0.9 | 0.00 | 0.00 | 0.00 | 56 | 1018.8 |
| 20260503024818 | 48 | 315 | 0.0 | 0.9 | 0.00 | 0.00 | 0.00 | 56 | 1018.8 |
| 20260503024308 | 48 | 315 | 0.0 | 0.0 | 0.00 | 0.00 | 0.00 | 56 | 1018.8 |
| 20260503023757 | 49 | 315 | 0.0 | 0.0 | 0.00 | 0.00 | 0.00 | 56 | 1018.8 |
| 20260503023247 | 49 | 315 | 0.0 | 0.9 | 0.00 | 0.00 | 0.00 | 56 | 1018.8 |
| 20260503022737 | 49 | 315 | 0.0 | 0.9 | 0.00 | 0.00 | 0.00 | 56 | 1018.9 |
| 20260503022226 | 49 | 315 | 0.0 | 0.9 | 0.00 | 0.00 | 0.00 | 56 | 1019.0 |
| 20260503021716 | 49 | 315 | 0.0 | 1.7 | 0.00 | 0.00 | 0.00 | 56 | 1019.0 |
| 20260503021206 | 49 | 315 | 0.0 | 0.0 | 0.00 | 0.00 | 0.00 | 56 | 1019.1 |
| 20260503020655 | 49 | 315 | 0.0 | 0.9 | 0.00 | 0.00 | 0.00 | 56 | 1019.1 |
| 20260503020145 | 48 | 315 | 0.0 | 0.0 | 0.00 | 0.00 | 0.00 | 57 | 1019.2 |
| 20260503015635 | 48 | 315 | 0.0 | 0.0 | 0.00 | 0.00 | 0.00 | 57 | 1019.2 |
| 20260503015124 | 48 | 315 | 0.0 | 0.0 | 0.00 | 0.00 | 0.00 | 57 | 1019.2 |
| 20260503014614 | 48 | 315 | 0.0 | 0.9 | 0.00 | 0.00 | 0.00 | 57 | 1019.1 |
| 20260503014104 | 48 | 315 | 0.0 | 0.0 | 0.00 | 0.00 | 0.00 | 57 | 1019.2 |
| 20260503013554 | 48 | 315 | 0.0 | 0.9 | 0.00 | 0.00 | 0.00 | 58 | 1019.2 |
| 20260503013044 | 48 | 315 | 0.0 | 0.9 | 0.00 | 0.00 | 0.00 | 59 | 1019.2 |
| 20260503012533 | 48 | 315 | 0.0 | 0.9 | 0.00 | 0.00 | 0.00 | 58 | 1019.2 |
| 20260503012023 | 48 | 315 | 0.0 | 0.9 | 0.00 | 0.00 | 0.00 | 58 | 1019.2 |
| 20260503011512 | 48 | 315 | 0.0 | 0.0 | 0.00 | 0.00 | 0.00 | 57 | 1019.2 |
| 20260503011002 | 48 | 315 | 0.0 | 0.9 | 0.00 | 0.00 | 0.00 | 57 | 1019.2 |
| 20260503010452 | 48 | 315 | 0.0 | 0.0 | 0.00 | 0.00 | 0.00 | 57 | 1019.2 |
| 20260503005941 | 48 | 315 | 0.0 | 0.0 | 0.00 | 0.00 | 0.00 | 58 | 1019.2 |
| 20260503005431 | 48 | 315 | 0.0 | 0.0 | 0.00 | 0.00 | 0.00 | 57 | 1019.3 |
| 20260503004921 | 48 | 315 | 0.0 | 0.9 | 0.00 | 0.00 | 0.00 | 57 | 1019.4 |
| 20260503004410 | 48 | 315 | 0.0 | 0.9 | 0.00 | 0.00 | 0.00 | 56 | 1019.4 |
| 20260503003900 | 48 | 315 | 0.0 | 0.0 | 0.00 | 0.00 | 0.00 | 56 | 1019.4 |
| 20260503003350 | 48 | 315 | 0.0 | 0.0 | 0.00 | 0.00 | 0.00 | 56 | 1019.5 |
| 20260503002840 | 49 | 315 | 0.0 | 0.0 | 0.00 | 0.00 | 0.00 | 56 | 1019.6 |
| 20260503002329 | 49 | 315 | 0.0 | 0.0 | 0.00 | 0.00 | 0.00 | 55 | 1019.6 |
| 20260503001819 | 49 | 315 | 0.0 | 0.0 | 0.00 | 0.00 | 0.00 | 55 | 1019.6 |
| 20260503001309 | 49 | 315 | 0.0 | 0.9 | 0.00 | 0.00 | 0.00 | 56 | 1019.6 |
| 20260503000758 | 49 | 315 | 0.0 | 0.9 | 0.00 | 0.00 | 0.00 | 55 | 1019.7 |
| 20260503000248 | 49 | 315 | 0.0 | 1.7 | 0.00 | 0.00 | 0.00 | 55 | 1019.7 |
| 20260502235738 | 49 | 315 | 0.0 | 0.9 | 0.00 | 0.00 | 0.00 | 55 | 1019.7 |
| 20260502235227 | 49 | 315 | 0.0 | 0.0 | 0.00 | 0.00 | 0.00 | 54 | 1019.7 |
| 20260502234717 | 49 | 315 | 0.0 | 0.9 | 0.00 | 0.00 | 0.00 | 54 | 1019.8 |
| 20260502234206 | 49 | 315 | 0.0 | 0.0 | 0.00 | 0.00 | 0.00 | 54 | 1019.9 |
| 20260502233656 | 49 | 315 | 0.0 | 0.0 | 0.00 | 0.00 | 0.00 | 54 | 1019.9 |
| 20260502232635 | 49 | 315 | 0.0 | 0.9 | 0.00 | 0.00 | 0.00 | 54 | 1019.9 |